Wind_Speed
22 19 16 16 16 17 17 16 14 13 12 12 12 13 13 12 10 9 9 9 9 8 7 7 8 8 8 7 7 7 7 6 5 5 5 5 4 4 3 3 2 3
23 20 17 16 17 17 17 17 16 15 13 12 11 11 12 13 12 10 10 9 9 9 8 8 8 8 8 8 8 8 8 8 7 7 6 5 5 5 4 3 2 3
24 20 18 17 18 18 17 16 16 16 15 13 12 11 11 12 12 11 10 9 9 9 9 8 8 8 8 8 9 9 9 9 9 8 7 6 6 6 5 4 4 3
25 21 19 18 18 18 17 16 16 16 15 14 13 11 11 11 11 11 11 10 10 9 9 9 8 9 9 8 9 10 10 10 9 9 8 8 8 7 7 6 6 5
27 23 21 20 19 18 17 17 16 16 16 15 14 13 12 11 11 11 10 10 10 10 10 10 10 10 9 9 10 10 10 11 10 10 10 9 9 8 8 7 7 6
27 25 23 22 20 19 19 18 17 17 16 15 14 14 13 13 12 12 12 11 11 11 11 11 11 11 11 10 10 10 11 11 11 10 11 10 9 9 8 8 8 7
28 27 25 23 22 21 21 20 19 17 16 15 14 15 14 14 14 13 13 12 12 12 12 12 12 12 11 11 11 11 11 11 11 11 11 11 10 9 9 8 9 9
28 27 26 24 23 23 22 22 20 18 15 14 14 14 14 15 15 14 14 14 13 12 12 13 13 13 12 12 12 12 12 11 11 12 12 11 10 10 9 8 9 9
27 26 26 25 24 24 23 23 22 19 16 15 15 14 14 15 15 15 14 14 14 13 13 13 14 14 14 14 13 13 13 12 12 12 12 11 11 11 9 9 9 9
26 25 25 25 24 24 23 23 23 21 19 17 17 16 16 16 16 16 15 15 15 15 15 14 14 14 14 15 15 14 14 14 13 13 13 12 12 11 10 10 10 11
24 24 24 24 24 23 22 22 22 22 21 19 18 18 17 17 17 17 17 17 17 16 16 15 15 14 15 15 16 15 15 14 14 14 14 14 13 13 12 11 12 12
22 22 22 21 21 21 22 21 20 20 20 20 20 19 18 18 18 19 19 19 18 18 17 16 16 16 16 16 16 16 16 16 15 15 15 15 15 14 13 13 12 12
22 21 20 18 16 15 16 18 18 19 19 19 19 18 18 18 18 18 18 18 19 19 19 18 18 18 17 17 17 18 18 18 17 16 16 16 16 16 15 15 15 14
24 23 22 21 19 16 14 14 15 17 18 18 18 17 16 16 16 17 17 17 18 19 19 19 19 19 20 19 19 19 20 20 19 18 18 17 18 18 17 17 17 17
20 19 18 18 20 20 18 16 15 16 18 19 19 17 16 16 15 16 15 15 16 17 18 18 19 20 20 21 21 22 22 22 21 20 20 19 19 19 19 18 18 18
12 13 12 11 14 16 17 16 14 14 16 18 19 19 18 17 16 16 17 17 17 17 18 19 19 20 21 21 22 23 24 24 24 23 22 21 21 21 20 20 19 19
8 9 9 9 10 11 10 10 10 10 13 15 16 17 17 16 16 16 16 16 16 17 18 19 20 21 21 22 22 23 24 24 25 25 24 23 23 22 22 21 21 20
8 7 8 9 9 8 6 5 5 6 9 11 11 11 12 13 13 13 12 12 13 13 14 16 17 19 20 22 22 22 22 24 24 25 25 24 24 23 23 23 22 22
14 13 13 12 10 9 8 6 5 5 4 4 4 5 8 9 10 10 9 8 9 9 9 9 10 12 15 18 21 21 22 22 23 24 24 24 24 23 24 23 23 23
15 14 13 11 9 8 8 7 7 6 4 3 3 3 4 5 5 5 4 4 5 5 5 4 4 6 9 11 13 17 19 20 20 21 22 22 22 22 22 22 23 23
15 15 14 13 11 10 8 8 8 6 3 1 1 2 2 2 2 2 1 1 2 3 5 5 5 6 7 6 6 8 11 14 16 17 18 18 19 20 20 21 21 21
16 16 16 14 13 12 11 11 10 7 5 2 1 0 1 2 1 1 1 1 0 2 5 7 7 6 5 5 5 5 6 9 11 12 13 14 14 15 15 16 16 16
16 15 14 14 13 13 14 13 11 8 6 3 1 1 2 1 0 2 2 2 2 3 5 6 6 6 5 4 3 3 4 6 9 10 11 11 11 11 11 12 12 12
13 13 13 13 13 14 14 13 11 9 7 4 3 2 3 3 3 4 5 5 5 5 5 6 6 8 9 8 6 4 4 5 8 10 11 11 11 10 10 11 11 11
11 11 12 13 13 14 13 12 11 9 7 6 5 5 5 6 6 6 6 6 7 8 8 6 6 7 9 10 10 9 8 8 8 9 11 11 11 10 9 9 9 10
13 13 13 15 15 15 15 14 12 10 9 7 7 7 9 10 9 9 8 7 6 8 10 8 6 5 5 6 7 8 8 6 4 4 6 8 8 8 8 7 7 7
Wind_Direction
223 229 235 238 244 244 235 228 229 233 239 245 249 250 247 244 241 239 244 247 248 251 246 240 238 237 239 240 243 248 247 247 248 250 260 269 270 264 265 275 280 298
222 229 233 236 240 238 231 228 230 232 237 245 253 258 253 245 242 243 248 251 253 255 251 243 238 235 237 239 243 247 245 245 249 251 255 259 256 254 261 270 276 294
222 228 231 233 234 231 229 229 230 232 238 246 253 257 251 243 241 245 249 251 256 260 256 248 239 234 236 242 247 250 248 249 253 253 253 255 256 258 265 271 273 284
221 226 229 230 231 229 229 230 232 236 242 249 251 250 246 241 240 244 249 252 256 260 258 252 244 241 243 249 253 253 252 252 252 252 252 256 262 266 271 273 271 272
221 225 227 228 230 231 231 233 236 241 247 252 251 247 246 244 242 244 249 253 255 258 258 253 251 252 253 254 257 258 255 253 251 251 252 257 265 269 271 272 271 270
223 226 227 228 229 232 235 237 239 242 247 253 252 249 248 248 248 248 250 254 257 259 259 256 255 257 257 256 258 261 261 258 254 252 253 258 264 267 267 269 273 275
225 227 228 229 231 234 237 239 241 242 245 249 252 253 252 252 253 254 254 257 261 264 264 262 261 261 259 257 258 260 264 264 260 257 257 259 262 262 261 264 270 275
227 229 230 231 233 236 239 239 238 239 241 244 249 253 254 254 257 259 258 257 260 265 267 267 268 267 261 256 256 258 262 265 265 263 262 262 263 261 260 260 263 268
228 230 231 234 235 238 240 238 235 235 237 240 244 248 252 254 259 262 260 258 258 262 266 268 270 270 264 257 254 256 260 265 268 267 267 268 269 269 268 263 260 265
228 229 231 234 236 239 240 238 235 235 238 240 243 246 249 253 258 262 262 260 260 263 265 265 266 267 265 260 257 257 260 263 267 269 270 272 274 276 276 271 269 271
226 229 231 233 236 239 240 238 237 238 240 243 245 247 251 254 256 260 262 263 264 266 266 264 263 263 264 263 262 261 261 262 265 268 271 273 274 276 276 275 276 276
224 226 228 231 235 239 241 240 239 240 242 244 246 249 252 254 255 259 264 266 266 267 267 266 266 265 263 261 261 261 262 262 264 265 268 270 272 274 273 274 276 278
221 220 220 221 227 235 240 243 242 242 243 245 246 248 252 255 257 260 265 269 269 269 268 268 269 268 266 263 259 259 260 262 264 265 266 267 270 273 274 274 273 274
219 218 218 219 222 226 233 241 245 245 244 243 243 244 247 254 258 262 266 269 270 271 271 271 271 270 269 267 263 260 260 261 263 264 265 268 270 274 276 276 275 275
221 221 223 225 226 227 229 232 240 248 248 243 240 240 241 246 253 258 262 264 267 270 272 273 273 272 272 271 269 266 264 264 264 264 265 268 270 274 277 277 276 275
218 218 220 225 228 229 229 228 232 246 252 247 241 239 240 241 246 252 257 261 265 268 271 273 273 273 273 273 273 273 270 268 268 268 268 269 271 273 276 277 276 276
219 216 216 222 228 229 231 235 239 251 261 256 244 239 240 240 244 250 256 261 266 270 275 276 275 275 275 275 275 276 275 272 270 270 270 270 272 274 276 279 280 280
170 172 179 188 198 201 204 223 239 250 262 263 255 247 243 241 243 248 253 259 264 271 279 282 281 278 274 272 272 274 276 275 272 271 270 270 271 273 277 280 282 284
131 136 142 147 155 158 157 158 163 180 213 239 245 243 241 237 237 239 242 251 258 266 278 291 299 294 283 276 272 271 273 274 273 271 271 271 272 274 277 281 283 285
111 115 116 116 121 130 135 137 134 133 138 141 145 183 219 224 226 230 229 236 250 260 271 290 310 305 299 295 286 277 273 272 272 272 271 272 273 275 277 280 283 285
97 97 98 99 100 104 109 110 110 111 116 132 139 162 188 173 129 104 128 161 219 239 243 247 256 268 279 291 298 292 283 277 273 270 270 271 272 273 275 277 280 283
87 87 87 88 90 94 96 93 92 100 111 127 181 203 212 185 149 64 55 83 207 246 245 244 246 257 269 267 267 279 295 300 291 278 273 273 273 276 279 280 283 285
78 81 81 82 82 83 84 84 83 87 95 99 105 72 55 77 103 353 352 339 310 297 288 275 272 291 307 295 269 271 292 314 314 302 289 282 278 279 281 283 286 289
68 72 74 76 76 74 77 82 83 83 83 81 85 79 63 67 70 58 40 21 7 357 338 321 316 319 312 298 287 290 298 310 315 312 305 301 298 293 287 284 284 287
58 62 66 69 70 71 75 79 81 81 81 82 85 81 74 74 77 78 71 51 39 38 33 14 351 337 320 302 288 283 289 298 301 305 309 311 313 309 300 293 289 287
62 62 65 68 70 73 76 78 79 80 79 78 77 73 74 75 77 82 85 79 64 57 57 49 24 3 360 349 315 282 283 300 308 327 336 332 328 328 322 315 310 306
Height
864 866 867 868 869 870 871 872 872 873 874 875 876 877 877 878 879 880 880 881 882 882 882 883 883 884 885 885 886 886 887 887 887 888 888 888 889 889 889 889 889 890
863 864 865 866 867 868 869 870 871 872 873 874 874 875 876 877 878 879 879 880 881 881 882 882 883 883 884 885 885 886 886 887 887 887 887 888 888 888 888 889 889 889
861 863 864 865 866 867 868 869 870 871 872 873 873 874 875 876 877 877 878 879 880 881 881 882 882 883 884 884 885 885 885 886 886 886 887 887 887 888 888 888 888 888
859 861 862 864 865 866 868 868 869 870 871 872 872 873 874 875 876 876 877 878 879 880 881 881 882 883 883 884 884 884 885 885 886 886 886 886 887 887 887 887 887 887
857 859 861 863 864 866 867 868 869 869 870 871 872 873 873 874 875 875 876 877 878 879 880 881 881 882 883 883 883 884 884 884 885 885 885 885 886 886 886 886 886 886
856 858 859 862 863 865 866 867 868 868 869 870 870 871 872 873 874 874 875 876 877 878 879 880 881 881 882 883 883 883 883 884 884 884 884 885 885 885 885 886 886 886
855 857 858 860 862 863 865 866 867 868 868 869 869 870 871 872 873 873 874 875 876 877 878 879 880 880 881 882 882 882 883 883 883 883 884 884 884 884 884 885 885 885
854 855 857 859 860 862 863 864 866 867 868 868 868 869 870 871 872 872 873 874 875 876 877 878 879 879 880 881 881 881 882 882 882 882 883 883 883 883 883 884 884 884
852 854 856 858 859 861 862 863 865 866 867 867 867 868 869 870 871 871 872 873 874 875 875 876 877 878 879 879 880 880 881 881 881 882 882 882 882 882 883 883 883 883
851 853 855 857 858 860 861 862 864 865 866 866 867 867 868 869 870 870 871 872 872 873 874 875 876 876 877 878 878 879 879 880 880 881 881 881 881 882 882 882 882 882
849 851 853 855 857 859 860 861 863 864 865 866 866 866 867 868 869 869 870 870 871 872 872 873 874 875 875 876 877 878 878 879 879 879 880 880 880 881 881 881 881 881
848 850 851 854 856 858 859 861 862 863 864 865 865 865 866 866 867 868 868 869 869 870 871 871 872 873 874 874 875 876 876 877 878 878 878 879 879 879 880 880 880 879
846 847 849 851 854 857 859 860 861 862 863 863 864 864 865 865 865 866 867 867 868 868 869 870 870 871 872 873 873 874 875 875 876 876 877 877 877 878 878 878 878 878
843 844 845 847 849 853 856 858 860 861 861 862 863 863 863 864 864 865 865 866 866 867 867 868 869 869 870 871 872 872 873 873 874 875 875 875 876 876 876 877 877 877
842 844 845 846 848 850 852 854 856 859 860 861 861 861 862 862 863 863 864 864 865 865 866 866 867 868 868 869 870 870 871 871 872 873 873 874 874 874 875 875 875 875
841 843 844 847 849 850 851 852 853 855 858 859 859 859 860 860 861 862 862 863 863 864 865 865 865 866 867 867 868 868 869 870 870 871 871 872 872 872 872 873 873 873
841 842 843 846 849 851 852 852 852 853 857 859 858 857 858 858 859 860 860 861 862 862 863 863 864 864 865 866 866 867 867 868 868 869 869 870 870 870 870 870 871 871
840 841 844 847 850 851 850 851 851 853 857 859 857 856 856 856 857 857 858 859 860 860 861 861 862 862 863 863 864 865 865 866 866 866 867 867 868 868 868 868 868 869
839 841 845 848 849 849 848 849 850 852 855 857 856 854 854 854 855 855 856 857 857 858 859 860 860 860 860 861 862 862 863 864 864 864 865 865 865 866 866 866 866 866
841 843 845 847 847 847 847 847 848 850 854 856 855 854 853 854 854 855 855 855 855 856 857 857 857 857 858 859 860 860 861 861 862 863 863 863 863 864 864 864 864 864
843 844 845 845 845 846 847 848 848 849 853 855 854 853 853 853 854 854 854 853 853 854 855 855 855 856 856 857 857 859 860 860 861 861 862 862 862 862 862 862 862 862
844 845 845 845 846 847 848 849 849 850 852 853 853 852 852 852 853 853 853 853 852 853 853 854 855 855 855 855 855 856 858 859 860 861 861 861 861 861 861 861 861 860
846 847 847 847 848 848 848 849 849 850 851 851 851 851 851 851 852 852 852 852 852 852 852 853 854 855 855 855 855 855 855 857 859 860 860 860 859 859 859 859 859 858
847 848 848 848 848 848 848 849 850 850 850 850 849 849 850 850 851 851 852 852 852 852 852 852 853 854 855 855 855 854 854 854 856 858 859 859 859 858 857 857 856 856
849 849 849 849 849 849 849 850 850 850 850 849 849 849 849 850 850 851 851 851 851 851 851 852 853 853 854 854 854 853 853 853 854 855 857 858 857 857 856 855 855 854
850 850 850 850 850 851 850 850 850 850 850 849 849 849 849 850 850 850 850 850 850 850 851 851 852 853 853 853 853 852 852 852 852 853 854 856 856 855 855 854 853 852